Preview of NWS' New Version of Forecast
This preview is not operational and should not be used for support decisions.

Regional Weather Roundup (RWR)

Issued by Philadelphia/Mt Holly (PHI)

                            
000
ASUS41 KPHI 220512
RWRPHI

REGIONAL WEATHER ROUNDUP
NATIONAL WEATHER SERVICE MOUNT HOLLY NJ
100 AM EDT FRI MAR 22 2019

NOTE:  "FAIR" INDICATES FEW OR NO CLOUDS BELOW 12,000 FEET WITH NO
SIGNIFICANT WEATHER AND/OR OBSTRUCTIONS TO VISIBILITY.

 * = STATION DOES NOT REPORT PRECIPITATION (E.G. RAIN, SNOW, ETC.) 
        OR FOG.

NJZ015>026-220600-
SOUTHERN NEW JERSEY
  
CITY           SKY/WX    TMP DP  RH WIND       PRES   REMARKS
POMONA         FOG       48  48 100 SE8       29.38F VSB 3/4          
WILDWOOD*      LGT RAIN  46  45  96 SE5       29.37F VSB 1/2          
MILLVILLE      CLOUDY    49  48  97 E7        29.35F FOG              
MOUNT HOLLY    RAIN      47  45  93 NE12G22   29.41F FOG              
TRENTON        LGT RAIN  43  41  93 NE16G26   29.45F FOG              

$$
NJZ001>014-220600-
NORTHERN NEW JERSEY
  
CITY           SKY/WX    TMP DP  RH WIND       PRES   REMARKS
SUSSEX         LGT RAIN  40  38  93 NE12G21   29.57F WCI  33          
ANDOVER*         N/A     40  38  93 NE9       29.55F WCI  34          
MORRISTOWN     LGT RAIN  41  41 100 N13       29.53F                  
NEWARK         RAIN      42  40  92 NE18G25   29.52F                  
TETERBORO      LGT RAIN  44  40  85 NE15G23   29.54F FOG              
CALDWELL       RAIN      43  42  97 NE9       29.56F FOG              
SOMERVILLE     CLOUDY    43  40  89 NE13G28   29.48F                  
ALLAIRE*       CLOUDY    46  45  96 NE17G26   29.44F                  
TOMS RIVER*    LGT RAIN  47  47 100 S8        29.44F                  

$$
PAZ043-044-047-054-055-060>062-066>071-220600-
EASTERN PENNSYLVANIA
  
CITY           SKY/WX    TMP DP  RH WIND       PRES   REMARKS
PHILADELPHIA   LGT RAIN  46  44  93 NE24G31   29.41F FOG              
NORTH PHILA    CLOUDY    46  42  86 NE17G24   29.45F                  
BLUE BELL*     CLOUDY    43  43 100 NE13G20   29.46F                  
DOYLESTOWN     LGT RAIN  42  40  92 NE13G23   29.46F                  
QUAKERTOWN*    CLOUDY    43  43 100 NE9G16    29.48F                  
PERKASIE*      RAIN      41  41 100 NE10G21   29.48F                  
POTTSTOWN      HVY RAIN  43  42  97 NE8G22    29.49F FOG              
LANCASTER      LGT RAIN  45  42  89 N16G23    29.51F                  
COATESVILLE    CLOUDY    43  43 100 N9G16     29.47F                  
READING        LGT RAIN  43  43 100 N12       29.51F                  
ALLENTOWN      RAIN      43  38  82 NE16      29.51F                  
MOUNT POCONO   LGT RAIN  36  36 100 NE12G18   29.52F WCI  28          
HAZLETON       HVY RAIN  37  36  93 NW6       29.59F WCI  33          
LEHIGHTON      LGT RAIN  41  39  93 NE6       29.56F                  
WILKES BARRE   LGT RAIN  40  37  89 N8        29.58F WCI  34          

$$
DEZALL-MDZ008-012-015-019-020-220600-
DELAWARE AND EASTERN MARYLAND
  
CITY           SKY/WX    TMP DP  RH WIND       PRES   REMARKS
WILMINGTON     LGT RAIN  48  46  93 N20G25    29.41F FOG              
DOVER          CLOUDY    48  48 100 E7        29.36F FOG              
GEORGETOWN     CLOUDY    49  45  86 SW16      29.37F FOG              
EASTON         DRIZZLE   48  47  97 W13G22    29.43F                  
PATUXENT       CLOUDY    43  43 100 W25G35    29.49F FOG              
OCEAN CITY     CLOUDY    43  42  97 W15G33    29.40F                  
WALLOPS ISLAND LGT RAIN  45  43  93 W18G33    29.46F FOG              
CAMBRIDGE      CLOUDY    45  45 100 W18G24    29.42F FOG              
SALISBURY      LGT RAIN  44  43  96 SW16      29.41F FOG              

$$
PAZ001-021-NYZ056-072-MDZ011-DCZ001-220600-
OTHER NEARBY LOCATIONS
  
CITY           SKY/WX    TMP DP  RH WIND       PRES   REMARKS
HARRISBURG     LGT RAIN  44  40  85 N14       29.56F                  
STATE COLLEGE  LGT RAIN  36  36  99 CALM      29.66F                  
WILLIAMSPORT   LGT RAIN  40  38  93 W6        29.65F                  
BINGHAMTON     LGT SNOW  34  33  96 N10       29.65F FOG     WCI  26  
NEW YORK CITY  RAIN      41  39  93 NE10G23   29.56F FOG              
BALTIMORE      LGT RAIN  45  44  97 NW15G28   29.48S FOG              
WASHINGTON DC  RAIN      44  39  82 NW25G36   29.54S                  

$$